This demonstration page uses our WeatherBlox Daily Observations layout. Learn more.

Left ArrowRight Arrow

39.51506, -84.39828

Hourly Observations for April 3, 2015

Temp ( °F °C ) Dew Point ( °F °C ) Humidity (%) Winds ( mph kmh ) Pressure ( in mb ) Visibility ( mi km ) Precip ( " mm )
12:15 am 00:15 Cloudy with Mist and Fog 60 15.3 56 13.5 89 89 N N/A 29.85 1011 2.5 4.02335 N/A
12:35 am 00:35 Cloudy with Rain 61 16 57 14 88 88 S 5 7 29.88 1012 7 11.26538 N/A
12:55 am 00:55 Cloudy with Light Rain 60 15.5 56 13.6 89 89 N N/A 29.85 1011 3 4.82802 N/A
1:15 am 01:15 Cloudy with Mist and Fog 60 15.3 56 13.5 89 89 N N/A 29.85 1011 3 4.82802 N/A
1:35 am 01:35 Mostly Cloudy with Mist and Fog 61 16 57 14.1 89 89 N N/A 29.85 1011 4 6.43736 N/A
1:55 am 01:55 Cloudy with Mist and Fog 60 15.3 56 13.5 89 89 WNW 3 6 29.85 1011 2.5 4.02335 N/A
2:15 am 02:15 Cloudy with Light Rain 60 15.3 56 13.5 89 89 N N/A 29.83 1010 2.5 4.02335 N/A
2:35 am 02:35 Cloudy with Mist and Fog 60 15.3 56 13.5 89 89 N 5 7 29.83 1010 0.75 1.207005 N/A
2:55 am 02:55 Cloudy with Light Rain 60 15.3 56 13.5 89 89 N N/A 29.83 1010 0.5 0.80467 N/A
3:15 am 03:15 Cloudy with Fog 60 15.3 56 13.6 90 90 N N/A 29.85 1011 0.5 0.80467 N/A
3:35 am 03:35 Cloudy with Fog 60 15.3 56 13.5 89 89 N N/A 29.83 1010 0.5 0.80467 N/A
3:55 am 03:55 Cloudy with Light Rain 58 14.3 55 12.6 90 90 N N/A 29.83 1010 0.5 0.80467 N/A
4:15 am 04:15 Cloudy with Mist and Fog 60 15.3 56 13.6 90 90 N 7 11 29.83 1010 3 4.82802 N/A
4:35 am 04:35 Cloudy with Mist and Fog 57 14 54 12.3 90 90 NNE 8 13 29.83 1010 4 6.43736 N/A
4:55 am 04:55 Cloudy with Light Rain 57 13.8 54 12.1 90 90 NNW 7 11 29.88 1012 4 6.43736 N/A
5:15 am 05:15 Cloudy with Light Rain 57 13.8 54 12 89 89 N 6 9 29.88 1012 4 6.43736 N/A
5:35 am 05:35 Cloudy with Light Rain 57 13.8 54 12 89 89 N N/A 29.83 1010 3 4.82802 N/A
5:55 am 05:55 Cloudy with Drizzle 57 13.8 54 12 89 89 N 3 6 29.83 1010 3 4.82802 N/A
6:15 am 06:15 Cloudy with Mist and Fog 57 13.8 54 12 89 89 N 3 6 29.83 1010 3 4.82802 N/A
6:35 am 06:35 Cloudy with Drizzle 57 13.8 54 12 89 89 N N/A 29.83 1010 2.5 4.02335 N/A
6:55 am 06:55 Cloudy with Light Rain 57 13.8 54 12 89 89 N N/A 29.83 1010 2 3.21868 N/A
7:15 am 07:15 Cloudy with Rain 57 13.8 54 12 89 89 NNW 8 13 29.88 1012 2 3.21868 N/A
7:35 am 07:35 Cloudy with Light Rain 57 13.8 54 12 89 89 NW 3 6 29.88 1012 2.5 4.02335 N/A
7:55 am 07:55 Cloudy with Light Rain 57 13.8 54 12 89 89 S 5 7 29.83 1010 1.75 2.816345 N/A
8:15 am 08:15 Cloudy with Mist and Fog 57 13.8 54 12 89 89 N N/A 29.83 1010 1.25 2.011675 N/A
8:35 am 08:35 Cloudy with Light Rain 57 13.8 54 12 89 89 SSE 7 11 29.83 1010 1.25 2.011675 N/A
8:55 am 08:55 Cloudy with Mist and Fog 59 15.1 56 13.3 89 89 S 3 6 29.8 1009 3 4.82802 N/A
9:15 am 09:15 Cloudy with Mist and Fog 58 14.6 55 12.7 88 88 N 7 11 29.83 1010 2 3.21868 N/A
9:35 am 09:35 Mostly Cloudy with Mist and Fog 60 15.3 56 13.4 89 89 N N/A 29.83 1010 5 8.0467 N/A
9:55 am 09:55 Mostly Cloudy 60 15.3 55 13 86 86 N N/A 29.83 1010 7 11.26538 N/A
10:15 am 10:15 Partly Cloudy 61 16 56 13.2 84 84 N N/A 29.83 1010 10 16.0934 N/A
10:35 am 10:35 Sunny 62 16.6 56 13.5 82 82 SSW 7 11 29.83 1010 10 16.0934 N/A
10:55 am 10:55 Mostly Cloudy 62 16.6 56 13.4 82 82 WSW 6 9 29.85 1011 10 16.0934 N/A
11:15 am 11:15 Cloudy 62 16.6 55 13 79 79 WSW 8 13 29.85 1011 10 16.0934 N/A
11:35 am 11:35 Cloudy 62 16.6 55 13 79 79 WSW 9 15 29.85 1011 10 16.0934 N/A
11:55 am 11:55 Cloudy with Light Rain 61 16.1 55 12.7 80 80 WSW 8 13 29.85 1011 10 16.0934 N/A
12:15 pm 12:15 Cloudy with Light Rain 61 16 56 13.1 83 83 SW 6 9 29.85 1011 7 11.26538 N/A
12:35 pm 12:35 Cloudy with Light Rain 61 16 56 13.5 85 85 SSW 8 13 29.85 1011 7 11.26538 N/A
12:55 pm 12:55 Cloudy with Light Rain 60 15.5 56 13.2 86 86 SSW 10 17 29.85 1011 7 11.26538 N/A
1:15 pm 13:15 Cloudy with Light Rain 60 15.3 55 13 86 86 S 12 19 29.8 1009 10 16.0934 N/A
1:35 pm 13:35 Mostly Cloudy 60 15.7 56 13.2 85 85 S 20 31 29.77 1008 10 16.0934 N/A
1:55 pm 13:55 Mostly Cloudy 62 16.5 57 13.8 84 84 S 17 28 29.77 1008 10 16.0934 N/A
2:15 pm 14:15 Cloudy 63 17 57 13.7 81 81 SSW 20 31 29.8 1009 10 16.0934 N/A
2:35 pm 14:35 Cloudy 64 17.8 58 14.2 80 80 SW 17 28 29.8 1009 10 16.0934 N/A
2:55 pm 14:55 Cloudy 63 17 56 13.5 80 80 SW 14 22 29.8 1009 10 16.0934 N/A
3:15 pm 15:15 Cloudy 64 18 58 14.3 79 79 SW 10 17 29.8 1009 10 16.0934 N/A
3:35 pm 15:35 Cloudy 67 19.2 58 14.5 74 74 SW 10 17 29.8 1009 10 16.0934 N/A
3:55 pm 15:55 Cloudy 64 18 56 13.5 75 75 W 6 9 29.77 1008 10 16.0934 N/A
4:15 pm 16:15 Cloudy with Light Rain 58 14.7 52 10.9 78 78 NNW 20 31 29.8 1009 10 16.0934 N/A
4:35 pm 16:35 Cloudy with Light Rain 55 12.5 49 9.5 82 82 N 20 31 29.8 1009 10 16.0934 N/A
4:55 pm 16:55 Cloudy with Drizzle 52 11 46 8 82 82 NE 10 17 29.83 1010 10 16.0934 N/A
5:15 pm 17:15 Cloudy with Light Rain 52 11 46 8 82 82 NNE 6 9 29.83 1010 10 16.0934 N/A
5:35 pm 17:35 Cloudy with Drizzle 52 11 47 8.1 82 82 NNE 6 9 29.83 1010 4 6.43736 N/A
5:55 pm 17:55 Cloudy with Drizzle 52 11 47 8.5 85 85 N 10 17 29.85 1011 10 16.0934 N/A
6:15 pm 18:15 Cloudy with Rain 52 10.9 45 7.1 78 78 N 15 24 29.85 1011 5 8.0467 N/A
6:35 pm 18:35 Cloudy with Snow 49 9.6 43 5.9 78 78 N 6 9 29.85 1011 7 11.26538 N/A
6:55 pm 18:55 Cloudy with Light Snow 49 9.6 43 6.1 79 79 N 16 26 29.88 1012 5 8.0467 N/A
7:15 pm 19:15 Cloudy 49 9.6 44 6.6 82 82 N 14 22 29.91 1013 7 11.26538 N/A
7:35 pm 19:35 Cloudy 49 9.6 44 6.6 82 82 N 12 19 29.91 1013 10 16.0934 N/A
7:55 pm 19:55 Cloudy 49 9.6 44 6.6 82 82 N 9 15 29.91 1013 10 16.0934 N/A
8:15 pm 20:15 Cloudy 49 9.6 44 6.5 81 81 N 8 13 29.94 1014 10 16.0934 N/A
8:35 pm 20:35 Cloudy 49 9.6 44 6.5 81 81 N 5 7 29.94 1014 10 16.0934 N/A
8:55 pm 20:55 Cloudy 49 9.6 42 5.8 77 77 NNW 3 6 29.94 1014 10 16.0934 N/A
9:15 pm 21:15 Cloudy 49 9.6 43 6 78 78 NW 3 6 29.94 1014 10 16.0934 N/A
9:35 pm 21:35 Cloudy 49 9.6 43 6 78 78 NW 3 6 29.97 1015 10 16.0934 N/A
9:55 pm 21:55 Cloudy 49 9.6 43 6.3 80 80 WNW 5 7 29.97 1015 10 16.0934 N/A
10:15 pm 22:15 Mostly Cloudy 49 9.6 43 6.2 80 80 WNW 5 7 30 1016 10 16.0934 N/A
10:35 pm 22:35 Partly Cloudy 49 9.6 43 6.2 80 80 W 3 6 30 1016 10 16.0934 N/A
10:55 pm 22:55 Partly Cloudy 49 9.6 44 6.5 81 81 undefined N/A N/A 10 16.0934 N/A
11:15 pm 23:15 Mostly Cloudy 49 9.6 44 6.5 81 81 WNW 7 11 N/A 10 16.0934 N/A
11:35 pm 23:35 Mostly Cloudy 49 9.6 43 6.1 79 79 NW 9 15 30.03 1017 10 16.0934 N/A
11:55 pm 23:55 Mostly Cloudy 49 9.6 38 3.3 65 65 NW 9 15 30.06 1018 10 16.0934 N/A

Powered by AerisWeather